Location: Gull Harbor
(47.1000°N, 122.9000°W)
Time: 00:47:05
(UTC-07:00)

OTV 5 (USA 277) - Visible Passes

Search period start: 19 October 2019 00:00
Search period end: 29 October 2019 00:00
Orbit: 310 x 324 km, 54.5° (Epoch: 17 October)

Date Brightness Start Highest point End Pass type
(mag) Time Alt. Az. Time Alt. Az. Time Alt. Az.
19 Oct ? 05:24:58 23° ESE 05:24:58 23° ESE 05:26:13 10° ESE visible
19 Oct ? 06:55:56 10° W 06:57:28 14° SW 06:59:01 10° SSW visible
20 Oct ? 05:39:38 20° SSE 05:39:38 20° SSE 05:40:42 10° SE visible
21 Oct ? 05:54:26 11° S 05:54:26 11° S 05:54:35 10° S visible
28 Oct ? 19:11:42 10° S 19:13:13 15° SE 19:13:13 15° SE visible
